Flag for U.S.A. Weather past 2 weeks in Sterling Heights, Michigan, U.S.A.

Now
60 °F

Scattered clouds.


Feels Like: 58 °F
Forecast: 48 / 65 °F
Wind: 14 mph from West

Location: Selfridge Air National Guard Base

Current Time: Oct 25, 2014 at 11:26:16 AM

Latest Report: Oct 25, 2014 at 10:55 AM


Visibility: 10 mi

Pressure: 29.78 "Hg

Humidity: 75%

Dew point: 52 °F

Location of Sterling HeightsLocation

Historic Weather in Sterling Heights — Graph

°F

Sterling Heights temperature yesterday

Maximum temperature yesterday: 62 °F (at 1:55 PM)
Minimum temperature yesterday: 36 °F (at 8:55 AM)
Average temperature yesterday: 49 °F

Past Weeks' High & Low Weather Summary

 TemperatureHumidityPressure
High68 °F (Oct 14, 12:55 PM)100% (Oct 12, 8:55 AM)30.34 "Hg (Oct 12, 8:55 AM)
Low33 °F (Oct 19, 7:55 AM)36% (Oct 11, 3:55 PM)29.49 "Hg (Oct 17, 2:55 PM)
Average51 °F80%29.96 "Hg
* Reported Oct 10 9:55 AM — Oct 25 9:55 AM, Sterling Heights, Weather by CustomWeather, © 2014

Note: Actual official high and low records may vary slightly from our data, if they occured in-between our weather recording intervals... More about our weather records

Advertising

Sterling Heights weather history for previous 24 hours

 ConditionsComfort  
Time TempWeatherWind HumidityBarometerVisibility
9:55 AM
Oct 25
57 °FPassing clouds.10 mph79%29.79 "Hg10 mi
8:55 AM53 °FOvercast.9 mph89%29.81 "Hg7 mi
7:55 AM51 °FMostly cloudy.9 mph100%29.82 "Hg7 mi
6:58 AM49 °FMostly cloudy.5 mph99%29.84 "Hg9 mi
5:58 AM49 °FPassing clouds.5 mph99%29.85 "Hg8 mi
4:58 AM48 °FClear.7 mph99%29.85 "Hg9 mi
3:58 AM50 °FClear.8 mph94%29.88 "Hg10 mi
2:58 AM51 °FClear.7 mph93%29.90 "Hg10 mi
1:58 AM51 °FClear.6 mph90%29.91 "Hg10 mi
12:58 AM53 °FPassing clouds.6 mph82%29.93 "Hg10 mi
11:58 PM
Oct 24
55 °FOvercast.5 mph76%29.95 "Hg10 mi
10:58 PM56 °FOvercast.5 mph73%29.96 "Hg10 mi
9:58 PM56 °FOvercast.6 mph70%29.96 "Hg10 mi
8:58 PM55 °FOvercast.8 mph70%29.95 "Hg10 mi
7:56 PM54 °FPassing clouds.7 mph71%29.98 "Hg10 mi
6:55 PM58 °FPartly sunny.7 mph61%29.98 "Hg10 mi
5:55 PM60 °FPartly sunny.8 mph56%29.98 "Hg10 mi
4:56 PM62 °FPassing clouds.6 mph52%29.98 "Hg10 mi
3:55 PM62 °FPassing clouds.8 mph50%29.98 "Hg10 mi
2:55 PM60 °FOvercast.7 mph52%30.01 "Hg10 mi
1:55 PM62 °FScattered clouds.5 mph48%30.03 "Hg10 mi
12:55 PM60 °FBroken clouds.6 mph53%30.05 "Hg10 mi
11:55 AM56 °FOvercast.7 mph60%30.07 "Hg7 mi
Weather by CustomWeather, © 2014

See weather overviewHow to use our weather pages